Weather History for EHKD - March, 2013

Change the Weather History Date:

Wednesday, March 6, 2013

  Actual Average Record
Temperature  
Mean Temperature 46 °F -  
Max Temperature 52 °F 46 °F 53 °F (2014)
Min Temperature 39 °F 37 °F 28 °F (2005)
Degree Days  
Heating Degree Days 20    
Moisture  
Dew Point 37 °F    
Average Humidity 73    
Maximum Humidity 87    
Minimum Humidity 57    
Precipitation  
Precipitation 0.00 in 0.07 in - ()
Sea Level Pressure  
Sea Level Pressure 29.62 in    
Wind  
Wind Speed 5 mph ()    
Max Wind Speed 10 mph    
Max Gust Speed -    
Visibility 6.2 miles    
Events      
Averages and records for this station are not official NWS values.
T = Trace of Precipitation, MM = Missing Value Source: Averaged Metar Reports

Daily Weather History Graph

Daily Weather History Graph

Search for Another Location

Airport or City:

Trip Planner

Search our weather history database for the weather conditions in past years. The results will help you decide how hot, cold, wet, or windy it might be!

Date:

Astronomy

Mar. 06, 2013 Rise Set
Actual Time 7:16 AM CET 6:28 PM CET
Civil Twilight 6:41 AM CET 7:03 PM CET
Nautical Twilight 6:02 AM CET 7:43 PM CET
Astronomical Twilight 5:21 AM CET 8:23 PM CET
Moon 3:47 AM CET (3/6) 12:18 PM CET (3/6)
Length of Visible Light 12h 21m
Length of Day
11h 12m
Waning Crescent, 33% of the Moon is Illuminated
Mar 6
Waning Crescent
Mar 11
New
Mar 19
First Quarter
Mar 27
Full
Apr 3
Last Quarter

Hourly Weather History & Observations

Time (CET) Temp. Windchill Dew Point Humidity Pressure Visibility Wind Dir Wind Speed Gust Speed Precip Events Conditions
12:25 AM 42.8 °F 39.3 °F 35.6 °F 76% 29.68 in 6.2 mi SE 5.8 mph - N/A   Unknown
12:55 AM 42.8 °F 40.1 °F 35.6 °F 76% 29.65 in 6.2 mi SE 4.6 mph - N/A   Unknown
1:00 AM 43 °F - 35 °F 64% 29.68 in 8 mi SE 4.5 mph - -   Partly Cloudy
1:25 AM 42.8 °F 41.1 °F 33.8 °F 70% 29.65 in 6.2 mi SSE 3.5 mph - N/A   Partly Cloudy
1:55 AM 42.8 °F 41.1 °F 33.8 °F 70% 29.65 in 6.2 mi SSE 3.5 mph - N/A   Unknown
2:25 AM 41.0 °F 38.0 °F 33.8 °F 76% 29.65 in 6.2 mi SSE 4.6 mph - N/A   Partly Cloudy
2:55 AM 41.0 °F 38.0 °F 33.8 °F 76% 29.65 in 6.2 mi SSE 4.6 mph - N/A   Unknown
3:25 AM 41.0 °F 38.0 °F 33.8 °F 76% 29.65 in 6.2 mi SSE 4.6 mph - N/A   Partly Cloudy
3:55 AM 41.0 °F 38.0 °F 33.8 °F 76% 29.65 in 6.2 mi South 4.6 mph - N/A   Mostly Cloudy
4:00 AM 41 °F - 34 °F 67% 29.65 in 7 mi SSE 4.5 mph - -   Scattered Clouds
4:25 AM 41.0 °F 38.0 °F 33.8 °F 76% 29.65 in 6.2 mi South 4.6 mph - N/A   Scattered Clouds
4:55 AM 41.0 °F 39.0 °F 33.8 °F 76% 29.62 in 6.2 mi SSE 3.5 mph - N/A   Mostly Cloudy
5:25 AM 41.0 °F 39.0 °F 33.8 °F 76% 29.65 in 6.2 mi SSE 3.5 mph - N/A   Mostly Cloudy
5:55 AM 41.0 °F - 33.8 °F 76% 29.65 in 6.2 mi SSE 2.3 mph - N/A   Partly Cloudy
6:25 AM 41.0 °F 39.0 °F 35.6 °F 81% 29.62 in 6.2 mi South 3.5 mph - N/A   Overcast
6:55 AM 42.8 °F 40.1 °F 33.8 °F 70% 29.62 in 6.2 mi SSE 4.6 mph - N/A   Overcast
7:00 AM 43 °F - 35 °F 63% 29.64 in 7 mi SSE 4.5 mph - -   Partly Cloudy
7:25 AM 44.6 °F 42.2 °F 33.8 °F 66% 29.62 in 6.2 mi SSE 4.6 mph - N/A   Overcast
7:55 AM 44.6 °F 43.1 °F 33.8 °F 66% 29.62 in 6.2 mi ESE 3.5 mph - N/A   Overcast
8:25 AM 42.8 °F 41.1 °F 35.6 °F 76% 29.62 in 6.2 mi SE 3.5 mph - N/A   Overcast
8:55 AM 44.6 °F 43.1 °F 35.6 °F 71% 29.62 in 6.2 mi SE 3.5 mph - N/A   Overcast
9:25 AM 44.6 °F 42.2 °F 35.6 °F 71% 29.65 in 6.2 mi SE 4.6 mph - N/A   Overcast
9:55 AM 46.4 °F 45.2 °F 35.6 °F 66% 29.65 in 6.2 mi ESE 3.5 mph - N/A   Overcast
10:00 AM 46 °F - 36 °F 57% 29.65 in 7 mi East 2.2 mph - -   Partly Cloudy
10:25 AM 46.4 °F 45.2 °F 37.4 °F 71% 29.62 in 6.2 mi ESE 3.5 mph - N/A   Overcast
10:55 AM 48.2 °F - 37.4 °F 66% 29.65 in 6.2 mi SE 4.6 mph - N/A   Mostly Cloudy
11:25 AM 50.0 °F - 37.4 °F 62% 29.65 in 6.2 mi SSE 3.5 mph - N/A   Mostly Cloudy
11:55 AM 51.8 °F - 37.4 °F 58% 29.62 in 6.2 mi SE 3.5 mph - N/A   Overcast
12:25 PM 50.0 °F - 39.2 °F 66% 29.62 in 6.2 mi East 4.6 mph - N/A   Mostly Cloudy
12:55 PM 50.0 °F - 39.2 °F 66% 29.62 in 6.2 mi East 5.8 mph - N/A   Overcast
1:00 PM 49 °F - 39 °F 59% 29.64 in 7 mi East 4.5 mph - -   Partly Cloudy
1:25 PM 48.2 °F - 39.2 °F 71% 29.62 in 6.2 mi ENE 4.6 mph - N/A   Overcast
1:55 PM 48.2 °F - 39.2 °F 71% 29.62 in 6.2 mi ENE 5.8 mph - N/A   Overcast
2:25 PM 46.4 °F 42.9 °F 39.2 °F 76% 29.62 in 6.2 mi NE 6.9 mph - N/A   Overcast
2:55 PM 46.4 °F 42.4 °F 39.2 °F 76% 29.62 in 6.2 mi ENE 8.1 mph - N/A   Overcast
3:25 PM 46.4 °F 42.4 °F 41.0 °F 81% 29.62 in 6.2 mi NE 8.1 mph - N/A   Overcast
3:36 PM 46.4 °F 42.9 °F 41.0 °F 81% 29.62 in 5.6 mi ENE 6.9 mph - N/A   Haze
3:55 PM 46.4 °F 42.9 °F 41.0 °F 81% 29.59 in 5.6 mi NE 6.9 mph - N/A   Haze
4:00 PM 45 °F - 40 °F 78% 29.62 in 6 mi NE 6.7 mph - -   Light Haze
4:25 PM 44.6 °F 40.7 °F 41.0 °F 87% 29.59 in 5.6 mi NE 6.9 mph - N/A   Haze
4:55 PM 46.4 °F 42.9 °F 41.0 °F 81% 29.59 in 5.6 mi ENE 6.9 mph - N/A   Haze
5:25 PM 46.4 °F 43.5 °F 41.0 °F 81% 29.59 in 6.2 mi ENE 5.8 mph - N/A   Overcast
5:55 PM 44.6 °F 42.2 °F 41.0 °F 87% 29.59 in 5.6 mi ENE 4.6 mph - N/A   Overcast
6:25 PM 46.4 °F 43.5 °F 41.0 °F 81% 29.59 in 6.2 mi ENE 5.8 mph - N/A   Overcast
6:55 PM 44.6 °F 41.4 °F 41.0 °F 87% 29.59 in 5.6 mi ENE 5.8 mph - N/A   Overcast
7:00 PM 45 °F - 40 °F 77% 29.62 in 6 mi ENE 4.5 mph - -   Partly Cloudy
7:25 PM 46.4 °F 44.3 °F 39.2 °F 76% 29.59 in 6.2 mi ENE 4.6 mph - N/A   Overcast
7:55 PM 48.2 °F - 39.2 °F 71% 29.59 in 6.2 mi ENE 6.9 mph - N/A   Overcast
8:25 PM 48.2 °F - 39.2 °F 71% 29.59 in 6.2 mi ENE 5.8 mph - N/A   Overcast
8:55 PM 50.0 °F - 41.0 °F 71% 29.59 in 6.2 mi East 9.2 mph - N/A   Overcast
9:25 PM 48.2 °F - 39.2 °F 71% 29.59 in 6.2 mi East 10.4 mph - N/A   Overcast
9:55 PM 48.2 °F - 39.2 °F 71% 29.59 in 6.2 mi East 6.9 mph - N/A   Overcast
10:00 PM 48 °F - 39 °F 63% 29.62 in 7 mi East 8.9 mph - -   Overcast
10:17 PM 48.2 °F - 39.2 °F 71% 29.59 in 6.2 mi East 8.1 mph - N/A   Overcast
10:25 PM 48.2 °F - 39.2 °F 71% 29.59 in 6.2 mi East 8.1 mph - N/A   Overcast
10:55 PM 46.4 °F 41.9 °F 39.2 °F 76% 29.59 in 6.2 mi ENE 9.2 mph - N/A   Overcast
11:25 PM 44.6 °F 39.7 °F 39.2 °F 81% 29.59 in 6.2 mi East 9.2 mph - N/A   Overcast
11:55 PM 44.6 °F 39.7 °F 39.2 °F 81% 29.59 in 5.6 mi ENE 9.2 mph - N/A   Haze